Location: Caracas
(10.5033°N, 66.8422°W)
Time: 23:01:37
(UTC-04:00)

Hubble Space Telescope - Pass Details

Date: 11 November 2017
Orbit: 537 x 541 km, 28.5° (Epoch: 18 November)

Event Time Altitude Azimuth Distance (km) Brightness Sun altitude
Exits shadow 04:55:50 13° 205° (SSW) 1,594 3.1 -21.0°
Maximum altitude 04:58:50 28° 149° (SSE) 1,010 2.6 -20.3°
Drops below altitude 10° 05:02:24 10° 89° (E) 1,777 4.5 -19.5°
Sets 05:04:53 0° 78° (ENE) 2,668 5.4 -18.9°
